Vertical_Velocity
1 0 1 2 -0 -2 -2 -2 -0 1 1 -1 -3 -4 -3 -3 -3 -3 -3 -3 -3 -3 -2 -1 0 1 1 -0 -0 -0 -0 -1 -1 -1 -1 -1 -1 -1 -1 -1 -1 -1 -1 -1 -1 -1 -1 -1 -1 -1 -1 -1 -1 -2 -2 -2 -2 -3 -3 -3 -3 -3 -3 -3 -3 -3 -3 -3 -3
-1 -0 1 3 2 1 0 0 1 1 2 1 0 -1 -2 -3 -4 -4 -4 -3 -2 -1 1 2 2 2 1 -0 -0 0 -0 -1 -1 -1 -1 -1 -1 -1 -1 -1 -1 -0 -0 -0 -1 -1 -1 -1 -1 -1 -1 -1 -1 -1 -2 -2 -3 -3 -3 -3 -3 -3 -3 -3 -3 -3 -3 -3 -3
-1 2 4 4 3 1 -1 -2 -2 -2 -1 1 2 2 2 0 -1 -1 -2 -2 0 2 3 3 2 1 1 1 1 0 -0 -0 -0 -0 -0 -1 -1 -1 -1 -1 -0 -0 -0 -0 -1 -1 -1 -1 -1 -1 -1 -1 -1 -1 -1 -2 -2 -3 -3 -3 -3 -3 -3 -3 -4 -4 -4 -4 -3
1 2 2 1 -2 -5 -7 -8 -6 -4 -2 -0 2 3 3 2 2 2 2 3 3 3 2 1 1 1 1 1 1 0 0 0 0 0 0 -0 -1 -1 -1 -1 -0 -0 -0 -0 -1 -1 -1 -1 -1 -1 -1 -1 -1 -1 -1 -1 -2 -2 -2 -3 -3 -3 -3 -3 -3 -4 -4 -4 -4
0 -1 -2 -3 -4 -5 -5 -4 -2 -1 -0 1 2 2 3 4 5 6 6 5 2 1 1 2 2 2 1 0 1 0 0 -0 -0 0 0 0 -0 -0 -0 -0 -0 -0 -0 -0 -0 -1 -1 -1 -1 -1 -1 -1 -1 -1 -1 -1 -1 -2 -2 -2 -2 -3 -3 -3 -3 -3 -3 -4 -4
-3 -1 1 1 1 1 1 1 1 1 1 1 1 1 1 1 3 3 2 1 1 2 4 4 4 2 1 1 1 1 -0 -1 -1 -1 -0 -0 -0 -0 -0 -0 0 1 1 0 -0 -0 -1 -1 -1 -1 -1 -1 -1 -1 -1 -1 -1 -1 -2 -2 -2 -2 -2 -2 -2 -2 -3 -3 -3
-3 -1 1 2 2 1 1 1 4 4 4 2 1 -1 -2 -2 -1 -1 -1 0 3 4 4 2 1 0 -0 -1 -0 -0 -1 -1 -1 -1 -1 -0 -1 -1 -0 0 1 1 1 0 -0 -0 -0 -1 -1 -1 -1 -1 -1 -1 -1 -1 -1 -1 -1 -1 -1 -1 -1 -1 -1 -1 -2 -2 -2
3 1 -0 -1 -1 -1 -0 1 3 4 3 1 -0 -1 -1 -1 -0 1 2 4 3 2 0 -0 -1 -2 -2 -2 -2 -2 -1 -1 -1 -1 -1 -1 -1 -1 -0 0 0 1 1 0 0 -0 -0 -0 -0 -1 -1 -1 -1 -1 -1 -1 -1 -1 -1 -1 -1 -1 -1 -1 -1 -1 -1 -1 -1
6 4 3 2 1 1 1 1 1 -0 -1 -2 -1 -0 1 2 2 3 2 1 -0 -0 -0 -0 -1 -1 -0 -0 -1 -1 -1 -1 -1 -1 -1 -1 -1 -1 -1 -0 -0 -0 0 -0 0 0 -0 -0 -0 -1 -1 -1 -1 -1 -1 -1 -1 -1 -1 -0 -0 -0 -1 -1 -1 -0 -0 -0 -0
-0 1 2 4 3 3 3 4 2 1 0 -0 1 2 3 4 4 2 1 -1 1 2 1 0 0 0 -0 -0 -0 -0 -0 -1 -1 -1 -1 -1 -1 -2 -2 -1 -1 -1 -1 -1 -0 -0 -0 -0 -0 -1 -1 -1 -1 -0 -0 -0 -0 -0 -0 0 0 0 -0 -0 -0 -0 -0 -0 -0
-3 -1 -0 -0 1 3 4 5 4 4 4 4 4 4 4 3 3 3 3 4 4 2 0 0 1 -0 -1 -2 -1 -1 -0 0 0 0 -0 -1 -1 -1 -1 -1 -1 -1 -1 -1 -1 -1 -1 -0 -0 -1 -1 -1 -1 -1 -1 -1 -1 -0 -0 0 0 0 0 0 0 0 0 -0 0
2 2 2 1 2 3 4 3 2 3 4 4 4 3 2 1 2 3 4 4 2 1 1 2 1 0 -0 -1 -1 -0 0 1 1 1 1 0 -0 -0 -0 -0 -0 -0 -0 -1 -1 -1 -1 -0 -0 -0 -0 -1 -1 -1 -1 -1 -1 -1 -1 -0 -0 0 0 0 1 1 0 0 0
4 5 5 5 4 4 2 1 1 1 2 2 2 2 2 2 3 3 3 1 1 2 3 3 2 2 1 0 0 0 0 1 2 2 2 1 1 1 0 0 0 0 0 -0 -0 -0 0 0 0 0 0 -0 -1 -1 -1 -2 -2 -2 -2 -1 -0 -0 0 0 0 1 1 1 1
6 5 4 3 2 2 2 1 1 1 1 1 1 1 2 3 3 2 1 1 2 3 3 3 3 2 1 1 1 1 1 2 2 3 2 2 2 1 1 0 0 0 0 0 0 1 1 1 1 1 1 1 0 0 -0 -1 -1 -2 -2 -1 -1 -0 -0 -0 -0 0 0 0 0
6 4 3 3 2 1 1 1 0 0 0 1 1 2 2 2 2 1 1 2 3 3 3 3 2 1 1 2 2 2 3 3 3 3 2 2 1 1 1 1 1 1 0 0 0 1 1 2 1 1 1 1 1 1 1 1 0 -0 -1 -1 -1 -1 -0 -0 -0 -0 -0 0 0
2 2 3 4 2 1 1 0 -0 0 1 0 1 2 2 1 1 1 2 2 2 3 3 2 1 1 1 1 2 2 3 3 3 2 2 1 0 0 0 1 0 0 -0 -0 0 1 1 2 2 1 1 1 2 2 2 3 3 2 1 0 -0 -0 -0 -0 -0 -0 0 0 0
1 1 1 1 0 0 0 0 0 0 0 0 1 1 1 0 1 1 1 0 1 1 1 1 2 1 1 0 1 1 1 1 1 0 -0 -0 -0 -0 -0 0 0 0 0 0 0 1 1 1 1 1 1 1 1 2 2 3 4 3 3 2 1 0 -0 -0 0 1 1 1 1
1 0 0 0 -0 -0 -0 0 0 -0 -0 0 1 0 0 0 0 0 0 0 -0 -0 0 1 2 2 1 0 -0 -0 -1 -1 -1 -1 -0 0 0 1 1 1 1 1 1 1 1 1 1 1 1 0 0 -0 0 0 1 2 2 2 2 1 1 0 -0 0 0 1 1 2 1
-1 -0 1 0 -1 -0 0 1 1 0 0 0 0 1 1 0 0 0 1 1 0 1 2 2 2 2 2 2 1 0 -0 -1 -0 0 1 1 2 2 2 2 2 1 1 1 2 2 2 2 1 0 -0 -1 -1 -0 -0 -0 0 0 1 1 0 -0 -0 -0 0 1 1 1 1
-1 -0 -1 -2 -1 1 2 2 1 1 2 2 3 2 1 0 1 1 1 -0 1 2 3 3 2 2 2 3 2 2 1 1 2 2 2 2 2 2 1 1 2 2 1 2 2 2 2 2 1 1 0 -0 -0 -0 -1 -1 -0 -0 -0 0 0 -0 -0 -0 -0 -0 0 0 0
-0 -1 -1 -0 2 3 3 2 3 4 4 4 3 2 1 2 2 1 1 1 2 3 4 2 2 2 2 2 2 2 2 2 2 2 2 2 2 1 1 2 2 2 2 2 2 2 2 1 1 1 0 0 -0 -0 -0 -0 -0 0 0 0 0 0 -0 -1 -1 -1 -1 -0 -0
0 1 3 5 5 4 4 4 5 5 4 4 3 3 3 4 3 2 3 5 5 4 3 2 2 2 3 3 2 2 3 3 3 2 2 2 2 3 3 3 2 2 1 1 1 1 1 1 1 1 1 1 0 0 0 0 0 0 0 0 0 -0 -0 -1 -1 -1 -1 -1 -1
3 5 7 7 7 6 6 5 5 4 4 4 4 5 5 4 4 5 5 6 5 4 3 3 3 4 4 5 5 4 4 3 3 3 3 3 3 3 3 2 2 1 1 1 1 1 1 1 1 1 1 1 1 1 1 1 1 0 0 0 -0 -0 -1 -1 -1 -1 -1 -1 -1
6 6 6 6 6 5 4 3 3 3 3 3 3 4 4 4 5 5 5 4 3 4 4 4 4 5 5 6 5 5 4 3 3 3 3 3 3 2 2 1 1 1 1 1 2 2 1 1 1 1 1 1 1 1 1 1 1 1 1 0 -0 -0 -1 -1 -1 -1 -1 -1 -1
6 5 5 5 3 2 2 2 2 2 2 2 2 4 4 4 4 3 3 3 4 4 4 4 4 5 5 4 4 4 4 4 4 3 3 3 2 2 2 1 1 1 2 2 3 3 2 2 2 2 1 1 1 1 2 2 2 2 1 1 1 0 -0 -0 -0 -0 -0 -1 -1
4 4 3 2 1 1 2 2 1 2 2 3 4 5 4 3 3 4 4 4 4 4 4 4 4 4 3 3 3 4 4 4 4 4 3 3 2 2 2 1 1 1 2 2 2 3 3 3 3 3 3 2 2 2 2 2 2 2 2 2 1 1 1 1 0 0 0 -0 -1
3 3 2 1 3 3 2 2 3 4 5 5 4 4 3 3 4 5 5 4 4 4 4 4 4 3 3 3 3 3 3 2 3 3 3 3 2 2 1 1 2 2 2 2 2 2 2 2 2 3 3 3 2 2 2 2 2 2 2 2 2 2 2 1 1 1 1 -0 -1
2 1 2 3 4 4 3 4 5 5 4 3 3 4 4 5 6 5 5 4 4 4 4 4 3 3 3 4 3 2 2 2 2 2 2 3 3 2 2 2 2 2 2 2 2 2 2 2 2 2 2 2 2 2 2 2 2 2 2 2 2 2 2 2 1 1 1 -0 -0
2 2 4 5 4 4 4 5 4 3 3 4 5 6 7 6 5 4 4 3 4 4 3 2 2 3 4 3 2 2 3 3 2 2 2 2 3 3 4 4 4 4 3 3 3 2 2 2 2 2 2 2 2 2 2 3 2 2 2 2 2 2 1 1 1 0 -0 -0 -0
4 5 5 5 4 4 4 3 4 4 5 6 7 7 6 5 5 4 4 4 4 3 3 3 4 4 3 2 2 2 2 1 1 2 2 2 2 3 4 4 4 4 4 3 3 2 2 2 2 2 2 2 2 2 2 2 2 2 2 2 1 1 1 1 0 -0 -0 -1 -0
5 5 6 6 5 5 4 4 5 6 6 6 5 5 5 4 4 4 4 5 5 5 6 6 6 4 3 3 3 2 1 1 1 2 2 2 3 3 4 4 4 4 4 3 3 3 3 3 3 3 2 2 2 2 2 2 2 2 1 1 1 1 0 0 -0 -0 -0 -0 -0
5 5 6 6 5 5 5 5 5 5 5 5 5 5 5 5 5 5 6 7 6 6 6 5 4 4 3 3 2 2 2 2 2 2 3 3 4 4 4 4 4 4 4 3 3 3 3 3 3 3 3 2 2 2 2 2 2 1 1 1 1 1 0 -0 -0 -0 -0 -0 -0
5 5 5 5 4 4 5 5 4 4 5 5 5 5 5 5 6 6 6 5 4 4 3 2 2 1 1 0 1 2 2 2 3 3 4 5 5 5 5 5 4 4 4 3 3 3 3 3 3 3 2 2 2 2 2 2 2 1 1 1 1 0 -0 -0 -0 -0 -0 -0 -0
4 4 4 4 4 4 4 4 4 5 5 5 5 4 4 4 4 3 3 2 2 3 3 2 2 2 1 2 2 2 2 3 4 4 5 5 5 5 4 4 4 4 3 3 3 3 3 2 2 2 2 2 2 2 2 2 2 1 1 0 0 -0 -1 -1 -1 -1 -0 -0 -0
2 2 2 2 2 2 3 3 4 4 4 4 3 3 3 2 2 1 1 1 2 2 3 3 3 4 4 5 4 4 4 4 4 4 4 4 4 4 4 4 3 3 3 3 3 2 2 2 2 2 3 3 2 2 2 1 1 1 0 -0 -0 -1 -1 -1 -1 -1 -1 -1 -1
1 1 -0 -0 0 1 1 1 2 2 2 2 1 1 1 2 2 1 1 1 2 2 2 2 2 3 4 4 4 4 4 4 3 3 3 3 3 3 3 3 3 2 2 2 2 2 2 2 2 2 3 3 2 2 1 1 1 0 -0 -1 -1 -1 -1 -1 -1 -1 -1 -1 -1
1 -0 -1 -1 -1 -0 -0 0 1 1 1 1 1 1 1 1 1 1 1 1 2 2 2 2 2 2 2 2 3 4 4 4 4 3 2 2 2 2 2 2 2 2 2 2 2 2 2 1 1 2 2 2 2 1 1 1 1 0 -0 -1 -1 -1 -1 -1 -1 -1 -1 -1 -1
1 0 -0 -0 -0 -0 0 1 1 1 1 1 1 1 1 1 1 1 1 1 2 2 2 2 2 3 3 3 4 4 5 5 4 3 2 2 2 2 2 2 2 2 2 2 2 2 1 1 1 1 2 1 1 1 1 1 0 -0 -1 -1 -1 -1 -1 -1 -1 -1 -1 -1 -2
2 1 1 1 1 1 1 2 2 1 1 1 2 2 2 2 2 2 2 2 2 3 3 2 3 4 4 4 4 4 4 4 5 5 4 3 3 3 3 3 2 2 2 2 2 1 1 0 1 1 1 1 0 0 -0 -0 -0 -1 -1 -1 -1 -1 -1 -1 -1 -1 -1 -1 -2
2 2 3 3 2 2 2 2 2 2 2 2 2 2 2 2 2 3 3 3 4 4 4 4 4 4 4 4 4 3 3 3 5 5 5 5 4 4 3 3 2 2 2 2 2 1 1 0 1 1 0 -0 -0 -0 -1 -1 -1 -1 -1 -1 -1 -0 -0 -1 -2 -2 -1 -1 -2
3 3 3 3 3 2 2 1 1 2 2 3 3 2 2 3 4 3 3 3 3 4 5 5 4 4 4 4 4 3 3 2 3 4 4 4 4 3 3 3 2 2 2 2 2 1 1 1 1 0 -0 -1 -1 -1 -1 -1 -1 -0 -0 -1 -0 -0 -0 -1 -2 -2 -2 -1 -1
Height
1501 1503 1506 1508 1509 1511 1513 1514 1516 1517 1519 1520 1521 1523 1524 1526 1527 1529 1531 1532 1534 1535 1536 1538 1540 1541 1542 1543 1545 1546 1547 1548 1549 1550 1551 1552 1553 1554 1555 1556 1556 1557 1558 1558 1559 1559 1560 1560 1561 1561 1562 1562 1563 1563 1563 1564 1564 1564 1565 1565 1565 1565 1565 1565 1565 1565 1565 1566 1566
1499 1501 1504 1506 1508 1510 1511 1513 1514 1516 1517 1519 1520 1522 1523 1525 1526 1528 1529 1531 1532 1534 1536 1537 1538 1540 1541 1542 1544 1545 1546 1547 1548 1549 1550 1551 1552 1553 1554 1555 1555 1556 1557 1557 1558 1559 1559 1560 1560 1561 1561 1562 1562 1562 1563 1563 1564 1564 1564 1565 1565 1565 1565 1565 1565 1565 1565 1565 1565
1497 1500 1502 1504 1506 1507 1509 1510 1512 1514 1516 1517 1519 1521 1522 1524 1525 1526 1528 1530 1531 1533 1535 1536 1537 1538 1540 1541 1542 1544 1545 1546 1547 1548 1549 1550 1551 1551 1552 1553 1554 1555 1556 1557 1557 1558 1558 1559 1560 1560 1561 1561 1561 1562 1562 1563 1563 1563 1564 1564 1564 1564 1565 1565 1565 1565 1565 1565 1565
1495 1497 1500 1501 1503 1505 1506 1508 1510 1512 1514 1516 1518 1520 1521 1522 1524 1526 1527 1529 1530 1532 1533 1535 1536 1537 1539 1540 1541 1542 1543 1545 1546 1547 1548 1549 1550 1551 1551 1552 1553 1554 1555 1556 1556 1557 1558 1558 1559 1559 1560 1560 1561 1561 1561 1562 1562 1563 1563 1563 1564 1564 1564 1564 1564 1565 1565 1565 1565
1493 1495 1497 1499 1501 1503 1505 1507 1509 1511 1513 1515 1516 1518 1520 1521 1523 1524 1526 1527 1528 1530 1532 1534 1535 1536 1537 1538 1540 1541 1542 1543 1544 1546 1546 1547 1548 1549 1550 1551 1552 1553 1554 1555 1556 1556 1557 1557 1558 1559 1559 1560 1560 1560 1561 1561 1561 1562 1562 1563 1563 1563 1563 1564 1564 1564 1564 1564 1564
1490 1493 1495 1498 1500 1502 1504 1506 1508 1510 1511 1513 1515 1516 1518 1519 1521 1522 1524 1526 1527 1529 1531 1532 1534 1535 1536 1537 1538 1540 1541 1542 1543 1544 1545 1546 1547 1548 1549 1550 1551 1552 1553 1554 1554 1555 1556 1556 1557 1558 1558 1559 1559 1559 1560 1560 1561 1561 1561 1562 1562 1562 1563 1563 1563 1563 1563 1564 1564
1488 1491 1493 1496 1498 1501 1502 1504 1506 1508 1510 1511 1513 1515 1516 1517 1519 1521 1523 1524 1526 1528 1529 1531 1532 1533 1534 1536 1536 1538 1539 1540 1541 1543 1544 1545 1546 1547 1548 1549 1550 1551 1551 1552 1553 1554 1555 1556 1556 1556 1557 1558 1558 1558 1559 1559 1560 1560 1560 1561 1561 1561 1562 1562 1562 1562 1562 1563 1563
1487 1489 1491 1494 1496 1499 1501 1503 1505 1506 1508 1510 1511 1513 1515 1516 1518 1520 1521 1523 1525 1526 1527 1529 1530 1531 1532 1534 1535 1536 1537 1539 1540 1541 1542 1544 1545 1546 1546 1547 1548 1549 1550 1551 1552 1553 1554 1554 1555 1556 1556 1556 1557 1557 1558 1558 1559 1559 1559 1560 1560 1561 1561 1561 1561 1561 1561 1562 1562
1485 1487 1490 1492 1495 1497 1499 1501 1503 1505 1506 1508 1510 1512 1514 1515 1517 1518 1520 1521 1522 1524 1526 1527 1528 1529 1531 1532 1533 1535 1536 1537 1539 1540 1541 1542 1543 1544 1545 1546 1547 1548 1549 1550 1551 1552 1552 1553 1554 1555 1555 1556 1556 1556 1557 1557 1558 1558 1558 1559 1559 1560 1560 1560 1560 1561 1561 1561 1561
1482 1485 1488 1491 1493 1495 1497 1499 1501 1503 1505 1507 1509 1511 1512 1514 1515 1517 1518 1519 1521 1522 1524 1525 1526 1528 1529 1531 1532 1533 1535 1536 1537 1538 1540 1541 1542 1543 1544 1545 1546 1547 1548 1549 1549 1550 1551 1552 1553 1553 1554 1555 1555 1556 1556 1556 1556 1557 1557 1558 1558 1558 1559 1559 1559 1560 1560 1560 1560
1479 1482 1485 1488 1491 1493 1495 1497 1500 1502 1504 1506 1507 1509 1511 1512 1514 1515 1517 1518 1520 1521 1522 1523 1525 1526 1527 1529 1530 1531 1533 1534 1536 1537 1538 1539 1540 1541 1542 1543 1544 1545 1546 1547 1548 1549 1550 1550 1551 1552 1553 1553 1554 1554 1555 1555 1556 1556 1556 1556 1557 1557 1558 1558 1558 1558 1559 1559 1559
1477 1480 1483 1486 1488 1491 1493 1495 1497 1500 1502 1504 1506 1507 1509 1511 1512 1514 1516 1517 1518 1519 1521 1522 1523 1524 1526 1527 1528 1530 1531 1533 1534 1535 1536 1537 1538 1540 1541 1542 1543 1544 1545 1546 1546 1547 1548 1549 1550 1550 1551 1552 1552 1553 1553 1554 1554 1555 1555 1556 1556 1556 1556 1557 1557 1557 1558 1558 1558
1476 1479 1481 1484 1487 1489 1491 1493 1496 1498 1500 1502 1504 1505 1507 1509 1511 1512 1514 1515 1516 1518 1519 1521 1522 1523 1524 1526 1527 1528 1529 1531 1532 1533 1534 1536 1537 1538 1539 1540 1541 1542 1543 1544 1545 1546 1546 1547 1548 1549 1549 1550 1551 1551 1552 1553 1553 1553 1554 1554 1555 1555 1555 1556 1556 1556 1556 1557 1557
1474 1477 1479 1482 1484 1486 1489 1491 1493 1495 1497 1499 1501 1503 1505 1507 1509 1511 1512 1513 1515 1516 1518 1519 1521 1522 1523 1524 1525 1526 1528 1529 1530 1531 1533 1534 1535 1536 1537 1538 1539 1540 1541 1542 1543 1544 1545 1546 1546 1547 1548 1548 1549 1550 1551 1551 1552 1552 1552 1553 1553 1554 1554 1555 1555 1555 1555 1556 1556
1471 1474 1477 1480 1482 1484 1486 1489 1491 1493 1495 1497 1499 1501 1503 1505 1507 1509 1510 1512 1513 1515 1516 1517 1519 1520 1521 1523 1524 1525 1526 1527 1529 1530 1531 1532 1533 1534 1535 1536 1537 1538 1539 1540 1541 1542 1543 1544 1545 1546 1546 1547 1548 1548 1549 1550 1550 1551 1551 1551 1552 1552 1553 1553 1553 1554 1554 1554 1555
1469 1472 1475 1477 1479 1481 1484 1486 1488 1491 1493 1495 1497 1499 1501 1503 1505 1506 1508 1510 1511 1513 1514 1516 1517 1518 1520 1521 1522 1524 1525 1526 1527 1528 1529 1530 1531 1532 1533 1535 1536 1536 1538 1539 1540 1541 1541 1542 1543 1544 1545 1546 1546 1547 1548 1548 1549 1549 1550 1550 1551 1551 1551 1552 1552 1552 1553 1553 1553
1466 1469 1471 1474 1476 1479 1481 1483 1486 1488 1490 1492 1495 1497 1499 1501 1502 1504 1506 1508 1509 1511 1512 1514 1515 1516 1518 1519 1520 1522 1523 1524 1525 1526 1527 1528 1529 1531 1531 1533 1534 1535 1536 1537 1538 1539 1540 1541 1542 1542 1543 1544 1545 1546 1546 1547 1547 1548 1548 1549 1549 1550 1550 1551 1551 1551 1551 1551 1552
1464 1466 1469 1471 1474 1476 1478 1481 1483 1486 1488 1490 1492 1494 1496 1498 1500 1502 1504 1506 1507 1509 1510 1512 1513 1515 1516 1517 1518 1520 1521 1522 1523 1524 1526 1527 1528 1529 1530 1531 1532 1533 1535 1536 1536 1537 1538 1539 1540 1541 1541 1542 1543 1544 1545 1546 1546 1546 1547 1547 1548 1548 1549 1549 1550 1550 1550 1550 1551
1461 1463 1466 1468 1471 1473 1476 1479 1481 1483 1486 1488 1490 1492 1494 1496 1498 1500 1502 1504 1505 1507 1509 1510 1511 1513 1514 1515 1516 1517 1519 1520 1521 1523 1524 1525 1526 1528 1529 1530 1531 1532 1533 1534 1535 1536 1537 1538 1538 1539 1540 1541 1541 1542 1543 1544 1544 1545 1546 1546 1546 1547 1547 1548 1548 1549 1549 1549 1549
1458 1461 1463 1466 1468 1471 1474 1476 1479 1481 1484 1486 1488 1490 1492 1494 1496 1498 1500 1501 1503 1505 1507 1508 1509 1511 1512 1513 1515 1516 1517 1519 1520 1521 1522 1524 1525 1526 1527 1528 1529 1530 1531 1532 1533 1534 1535 1536 1536 1537 1538 1539 1539 1540 1541 1542 1542 1543 1544 1545 1545 1546 1546 1546 1547 1547 1548 1548 1548
1456 1458 1461 1464 1466 1469 1471 1474 1477 1479 1481 1484 1486 1488 1490 1492 1494 1496 1498 1500 1502 1503 1505 1506 1507 1509 1510 1511 1513 1514 1516 1517 1518 1520 1521 1522 1523 1524 1525 1526 1527 1528 1529 1531 1531 1532 1533 1534 1535 1536 1536 1537 1538 1538 1539 1540 1541 1541 1542 1543 1544 1544 1545 1545 1546 1546 1547 1547 1547
1454 1456 1459 1462 1465 1467 1470 1472 1475 1477 1479 1482 1484 1486 1488 1490 1492 1494 1496 1498 1500 1501 1503 1504 1506 1507 1509 1510 1511 1512 1514 1515 1516 1518 1519 1520 1521 1522 1524 1525 1526 1526 1527 1528 1529 1530 1531 1532 1533 1534 1534 1535 1536 1537 1537 1538 1539 1540 1541 1541 1542 1543 1543 1544 1545 1545 1546 1546 1546
1452 1455 1458 1460 1463 1465 1468 1470 1472 1475 1477 1479 1482 1484 1486 1488 1490 1492 1494 1496 1498 1499 1501 1502 1504 1506 1507 1508 1510 1511 1512 1513 1515 1516 1517 1518 1520 1521 1521 1522 1523 1524 1525 1526 1527 1528 1529 1530 1531 1532 1533 1533 1534 1535 1536 1537 1537 1538 1539 1540 1541 1541 1542 1543 1543 1544 1544 1545 1545
1451 1453 1456 1458 1461 1463 1465 1467 1470 1472 1474 1477 1479 1481 1484 1486 1488 1490 1492 1494 1496 1497 1499 1501 1502 1504 1505 1507 1508 1509 1510 1511 1513 1514 1515 1516 1517 1518 1520 1521 1521 1522 1523 1525 1526 1526 1527 1528 1529 1530 1531 1532 1533 1533 1534 1535 1536 1537 1538 1538 1539 1540 1541 1541 1542 1542 1543 1543 1544
1449 1451 1454 1456 1458 1461 1463 1465 1467 1469 1472 1474 1476 1479 1481 1483 1486 1487 1489 1491 1493 1495 1497 1498 1500 1501 1503 1504 1506 1507 1508 1510 1511 1512 1513 1514 1516 1516 1517 1518 1519 1521 1522 1523 1524 1525 1526 1527 1527 1528 1529 1530 1531 1532 1533 1534 1535 1536 1536 1537 1538 1539 1539 1540 1541 1541 1541 1542 1542
1447 1449 1452 1454 1456 1458 1460 1462 1465 1467 1470 1472 1474 1476 1479 1481 1483 1485 1487 1489 1491 1493 1494 1496 1498 1499 1501 1502 1503 1505 1506 1507 1509 1510 1511 1512 1513 1515 1516 1516 1517 1519 1520 1521 1522 1523 1524 1525 1526 1527 1528 1529 1530 1531 1531 1532 1533 1534 1535 1536 1536 1537 1538 1538 1539 1540 1540 1541 1541
1445 1447 1449 1451 1454 1456 1458 1461 1463 1465 1467 1470 1472 1474 1476 1478 1481 1483 1485 1487 1489 1490 1492 1494 1495 1497 1498 1500 1501 1502 1504 1506 1507 1508 1510 1511 1511 1512 1514 1515 1516 1517 1518 1519 1520 1521 1522 1523 1524 1526 1526 1527 1528 1529 1530 1531 1532 1533 1534 1534 1535 1536 1536 1537 1538 1538 1539 1539 1539
1443 1445 1447 1450 1452 1454 1456 1459 1461 1463 1465 1467 1470 1472 1474 1476 1478 1480 1482 1484 1486 1488 1489 1491 1493 1494 1496 1497 1499 1501 1502 1503 1505 1506 1507 1509 1510 1511 1512 1513 1514 1515 1516 1517 1518 1519 1521 1521 1523 1524 1525 1526 1527 1528 1529 1530 1531 1531 1532 1533 1534 1535 1535 1536 1536 1537 1537 1538 1538
1441 1443 1446 1448 1450 1452 1455 1456 1459 1461 1463 1465 1468 1470 1472 1474 1476 1478 1480 1481 1483 1485 1487 1488 1490 1492 1494 1495 1497 1499 1500 1501 1503 1504 1506 1507 1508 1509 1510 1511 1512 1513 1514 1516 1516 1518 1519 1520 1521 1522 1523 1524 1526 1526 1527 1528 1529 1530 1531 1532 1532 1533 1534 1535 1535 1536 1536 1536 1536
1440 1442 1444 1446 1448 1451 1453 1455 1457 1459 1461 1464 1466 1468 1470 1472 1474 1476 1477 1479 1481 1483 1485 1486 1488 1490 1491 1493 1495 1497 1498 1500 1501 1502 1504 1505 1506 1507 1508 1510 1511 1512 1513 1514 1515 1516 1517 1518 1519 1521 1522 1523 1524 1525 1526 1527 1528 1529 1530 1531 1531 1532 1532 1533 1534 1534 1535 1535 1535
1438 1441 1443 1445 1447 1449 1451 1453 1456 1457 1460 1462 1464 1466 1468 1470 1472 1473 1476 1477 1479 1481 1483 1485 1487 1488 1490 1492 1493 1495 1496 1498 1499 1500 1501 1503 1504 1506 1507 1508 1509 1510 1511 1512 1513 1514 1516 1517 1518 1519 1521 1521 1522 1524 1525 1526 1526 1527 1528 1529 1530 1531 1531 1532 1532 1533 1533 1534 1534
1437 1439 1441 1444 1446 1448 1450 1452 1454 1456 1458 1460 1462 1464 1466 1468 1470 1472 1474 1476 1478 1480 1482 1484 1486 1487 1489 1490 1492 1493 1495 1496 1497 1498 1500 1501 1502 1504 1505 1506 1507 1509 1510 1511 1512 1513 1515 1516 1517 1518 1519 1520 1521 1522 1523 1524 1525 1526 1527 1528 1528 1529 1530 1531 1531 1531 1532 1532 1532
1436 1438 1440 1442 1445 1446 1449 1451 1452 1455 1457 1459 1461 1463 1466 1468 1470 1472 1474 1476 1477 1479 1481 1482 1484 1486 1487 1489 1490 1491 1493 1494 1496 1497 1498 1500 1501 1502 1504 1505 1506 1507 1508 1510 1511 1512 1513 1515 1516 1517 1518 1519 1520 1521 1522 1523 1524 1525 1526 1526 1527 1528 1529 1529 1530 1530 1530 1531 1531
1435 1437 1439 1441 1443 1446 1447 1450 1452 1454 1456 1458 1461 1463 1465 1467 1469 1471 1472 1474 1476 1478 1480 1481 1483 1485 1486 1487 1489 1490 1491 1492 1494 1495 1497 1498 1500 1501 1502 1504 1505 1506 1507 1509 1510 1511 1512 1513 1515 1516 1517 1518 1519 1520 1521 1521 1522 1523 1524 1525 1526 1526 1527 1528 1528 1528 1529 1529 1529
1434 1436 1439 1441 1443 1445 1447 1449 1451 1454 1456 1458 1460 1462 1464 1466 1468 1470 1471 1473 1475 1477 1479 1481 1482 1483 1485 1486 1487 1489 1490 1491 1492 1494 1496 1497 1498 1500 1501 1503 1504 1505 1506 1508 1509 1510 1511 1512 1514 1515 1516 1517 1518 1519 1520 1520 1521 1522 1523 1524 1524 1525 1526 1526 1526 1526 1527 1527 1527
1434 1436 1438 1440 1443 1445 1447 1449 1451 1453 1456 1457 1460 1461 1463 1465 1467 1469 1471 1472 1474 1476 1477 1479 1481 1482 1483 1485 1486 1487 1489 1490 1491 1493 1494 1496 1497 1499 1500 1501 1503 1504 1506 1507 1508 1509 1511 1511 1512 1514 1515 1516 1517 1517 1518 1519 1520 1521 1521 1522 1523 1523 1524 1524 1524 1525 1525 1526 1526
1435 1436 1438 1441 1443 1445 1447 1449 1451 1453 1455 1457 1459 1461 1462 1464 1466 1468 1469 1471 1473 1474 1476 1477 1479 1480 1481 1483 1485 1486 1488 1489 1491 1492 1494 1495 1496 1498 1500 1501 1502 1503 1505 1506 1507 1508 1510 1511 1511 1513 1514 1515 1516 1516 1517 1518 1518 1519 1520 1521 1521 1521 1522 1522 1523 1523 1523 1524 1524
1435 1436 1438 1440 1442 1444 1446 1448 1451 1452 1454 1456 1458 1460 1461 1463 1465 1466 1468 1470 1472 1473 1475 1476 1478 1479 1481 1482 1484 1486 1487 1489 1491 1492 1493 1495 1496 1497 1499 1500 1501 1503 1504 1505 1506 1507 1509 1510 1511 1512 1513 1514 1515 1515 1516 1516 1517 1518 1518 1519 1519 1520 1520 1521 1521 1521 1522 1522 1523
1435 1436 1438 1440 1442 1444 1446 1447 1450 1451 1453 1455 1457 1459 1461 1462 1464 1466 1467 1469 1471 1473 1475 1476 1477 1479 1481 1482 1484 1485 1487 1489 1490 1492 1493 1495 1496 1497 1499 1500 1501 1502 1503 1505 1506 1507 1508 1509 1510 1511 1512 1513 1513 1514 1515 1515 1516 1516 1517 1517 1518 1518 1518 1519 1519 1520 1520 1521 1521
1435 1436 1438 1440 1441 1443 1445 1447 1449 1451 1452 1454 1456 1458 1460 1462 1464 1465 1467 1469 1471 1473 1475 1476 1477 1479 1480 1482 1483 1485 1486 1488 1490 1492 1493 1495 1496 1497 1498 1499 1501 1501 1503 1504 1505 1506 1507 1508 1509 1510 1511 1511 1512 1513 1513 1514 1514 1515 1515 1516 1516 1516 1517 1517 1518 1518 1519 1519 1520
1435 1436 1438 1439 1441 1442 1444 1446 1448 1450 1452 1454 1456 1458 1460 1461 1463 1465 1467 1469 1471 1473 1475 1476 1477 1479 1480 1482 1483 1485 1486 1488 1490 1491 1493 1494 1496 1496 1498 1499 1500 1501 1502 1503 1504 1505 1506 1506 1507 1508 1509 1510 1511 1511 1512 1512 1513 1513 1513 1514 1514 1515 1515 1515 1516 1516 1517 1518 1518